カタログに戻る

OPS 4682 DEB

運用中PO
NORAD 18670·DEBRIS·🇺🇸 United States

打ち上げ Apr 3, 1965 から Vandenberg Space Force Base

Loading…

次のパス (今後24時間)

TLE

最新Source: Space-Track

元期: Sep 14, 2026, 05:38 UTC

1 18670U 65027AG  26257.23514454 -.00000120  00000-0 -43787-3 0  9999
2 18670  90.2427 358.2437 0023726 258.6105 101.2351 12.97297642674310

AllMySatでOPS 4682 DEBをリアルタイム追跡

Download on the App Store